Date,TemperatureHighF,TemperatureAvgF,TemperatureLowF,DewpointHighF,DewpointAvgF,DewpointLowF,HumidityHigh,HumidityAvg,HumidityLow,PressureMaxIn,PressureMinIn,WindSpeedMaxMPH,WindSpeedAvgMPH,GustSpeedMaxMPH,PrecipitationSumIn
2013-2-1,30.1,26.0,20.5,17.6,8.4,1.7,70,47,31,30.27,29.81,25,4,25,0.00
2013-2-2,27.9,22.0,15.2,20.6,9.4,4.0,88,59,36,30.31,30.02,14,1,15,0.00
2013-2-3,30.0,24.7,18.4,23.5,19.7,15.2,92,81,65,30.02,29.80,11,0,13,0.03
2013-2-4,29.1,24.6,20.2,19.4,10.6,7.2,80,55,40,30.01,29.84,20,2,21,0.00
2013-2-5,31.5,29.1,24.7,28.1,24.9,19.4,91,84,79,29.95,29.87,4,0,0,0.01
2013-2-6,38.2,30.2,21.8,29.6,22.0,16.3,96,73,49,30.34,29.91,16,2,18,0.01
2013-2-7,33.5,26.7,18.1,20.1,16.0,12.7,87,65,44,30.47,30.27,7,0,0,0.00
2013-2-8,34.6,32.7,30.1,33.6,29.6,20.1,97,89,66,30.27,29.68,17,2,17,0.16
2013-2-9,32.4,26.9,20.6,31.1,15.5,7.6,97,64,41,30.37,29.77,23,6,24,0.01
2013-2-10,38.2,26.8,11.7,19.5,11.8,5.9,81,55,28,30.48,30.29,7,0,0,0.02
2013-2-11,47.0,37.8,30.7,47.0,35.6,18.9,100,92,61,30.29,29.65,11,0,12,0.22
2013-2-12,44.6,39.3,27.6,39.6,24.9,21.4,100,57,44,29.98,29.75,22,4,23,0.00
2013-2-13,43.8,33.1,21.4,31.2,25.3,18.9,94,75,50,29.96,29.66,7,0,0,0.01
2013-2-14,45.1,35.7,26.6,34.2,28.9,23.3,98,78,53,30.00,29.70,12,1,12,0.09
2013-2-15,56.0,40.6,24.1,36.5,29.0,22.1,97,67,39,30.01,29.90,12,1,13,0.06
2013-2-16,36.5,33.3,29.1,33.1,25.4,10.9,96,74,46,29.97,29.76,15,2,17,0.02
2013-2-17,30.6,26.4,19.4,10.9,5.2,-1.2,46,40,31,30.06,29.73,29,8,29,0.00
2013-2-18,35.0,25.3,17.7,14.4,6.1,-0.5,63,44,31,30.30,30.06,24,4,24,0.00
2013-2-19,43.3,33.8,19.7,41.3,28.4,13.6,97,81,51,30.18,29.69,17,1,17,0.20
2013-2-20,35.0,28.4,23.9,24.4,12.1,8.0,65,50,40,30.04,29.76,24,6,24,0.00
2013-2-21,34.4,27.8,23.2,15.8,12.6,9.2,63,53,43,30.30,30.02,28,5,28,0.00
2013-2-22,37.2,30.1,21.6,28.2,20.2,12.7,80,67,54,30.39,30.22,10,1,0,0.00
2013-2-23,43.8,38.3,32.7,43.8,37.7,28.0,100,98,80,30.24,29.79,11,0,0,0.11
2013-2-24,45.1,37.3,29.1,40.8,29.6,19.1,100,76,52,30.01,29.76,20,3,21,0.00
2013-2-25,44.2,33.8,24.2,28.5,23.2,18.6,84,66,45,30.22,30.01,15,1,16,0.00
2013-2-26,44.5,34.4,22.4,35.6,28.0,19.9,96,79,57,30.24,29.78,16,2,16,0.30
2013-2-27,48.9,42.9,36.8,46.8,39.2,35.5,100,88,67,29.78,29.50,23,2,23,0.22
2013-2-28,45.8,40.1,33.5,37.0,31.8,24.0,92,74,45,29.65,29.56,13,1,13,0.00